[[{"header":{"parameterUnit":"m.s-1","parameterCategory":1,"la1":30.2991,"la2":30.254,"lo1":-89.0895,"lo2":-89.0444,"dy":0.0017,"dx":0.0017,"nx":28,"ny":28,"refTime":"2024-10-09T03:00:00:Z","depth":0,"parameterNumber":2,"parameterNumberName":"U-component_of_WINDS"},"data":[0,0,0,0,0,0,0,0,0,0,0,0,0,0,0,0,0,0,0,0,0,0,0,0,0,0,0,0,0,0,0,0,0,0,0,0,0,0,0,0,0,0,0,0,0,0,0,0,0,0,0,0,0,0,0,0,0,0,-1.818,-1.8181,0,-1.8245,-1.8246,-1.8247,-1.8251,-1.825,-1.8249,-1.8249,-1.8316,-1.8319,-1.8321,0,0,0,0,0,0,0,0,0,0,0,0,0,-1.806,-1.8062,-1.818,-1.8181,-1.8182,-1.8245,-1.8246,-1.8247,-1.8251,-1.825,-1.8249,-1.8248,-1.8315,-1.8318,-1.8321,0,0,0,0,0,0,0,0,0,0,0,0,0,-1.8118,-1.8063,-1.818,-1.8191,-1.8193,-1.8245,-1.8246,-1.8247,-1.8251,-1.825,-1.8249,-1.8248,-1.8314,-1.8318,-1.8322,-1.8367,0,0,-1.8333,-1.8335,0,0,0,0,0,0,0,0,-1.8114,-1.8122,-1.8189,-1.8191,-1.8193,-1.8239,-1.8229,-1.8288,-1.8252,-1.8229,-1.8249,-1.8247,-1.8291,-1.8297,-1.8312,-1.837,-1.8373,-1.8334,-1.8336,-1.8337,-1.8338,0,0,0,0,0,0,0,-1.811,-1.8119,-1.8206,-1.819,-1.8192,-1.8194,-1.8201,-1.824,-1.8266,-1.8231,-1.8232,-1.8239,-1.8292,-1.8308,-1.8313,-1.8374,-1.8333,-1.8337,-1.8339,-1.8341,-1.8475,-1.8476,0,0,0,0,0,0,-1.8104,-1.8116,-1.8204,-1.8208,-1.815,-1.8197,-1.8204,-1.8225,-1.8265,-1.827,-1.824,-1.8239,-1.8302,-1.8309,-1.8316,-1.8373,-1.8337,-1.8341,-1.8343,-1.8473,-1.8475,-1.8476,0,0,0,0,0,0,-1.8101,-1.8112,-1.8201,-1.8162,-1.8174,-1.82,-1.8223,-1.8227,-1.8243,-1.8272,-1.8277,-1.8251,-1.8302,-1.831,-1.8355,-1.8375,-1.8343,-1.8346,-1.8472,-1.8474,-1.8476,-1.8486,0,0,0,0,0,0,-1.8098,-1.8111,-1.8128,-1.8162,-1.8176,-1.8239,-1.8224,-1.8229,-1.8249,-1.8249,-1.8284,-1.8289,-1.8301,-1.8349,-1.8358,-1.838,-1.8349,-1.847,-1.8473,-1.8475,-1.8484,-1.8488,-1.8492,0,0,0,0,0,-1.8094,-1.8128,-1.8129,-1.814,-1.8198,-1.824,-1.8248,-1.8261,-1.8251,-1.8269,-1.8288,-1.8288,-1.8371,-1.8353,-1.8364,-1.8387,-1.8469,-1.8472,-1.8475,-1.8483,-1.8488,-1.8492,0,0,0,0,0,0,-1.8096,-1.8133,-1.8134,-1.8181,-1.8207,-1.8241,-1.8263,-1.8266,-1.8296,-1.8294,-1.831,-1.8318,-1.8362,-1.8378,-1.8358,-1.8433,-1.8419,-1.8424,-1.8421,-1.8426,-1.843,-1.8426,-1.8352,0,0,0,0,0,-1.8102,-1.8133,-1.8163,-1.8202,-1.8215,-1.8237,-1.8256,-1.8264,-1.8292,-1.8303,-1.8325,-1.8353,-1.8385,-1.8406,-1.8438,-1.8486,-1.8495,-1.8507,-1.8511,-1.8514,-1.8519,-1.8547,-1.8553,-1.8486,-1.8486,-1.8486,0,0,-1.8114,-1.8138,-1.8157,-1.8203,-1.8224,-1.8257,-1.8246,-1.8281,-1.8305,-1.8309,-1.8352,-1.8369,-1.8401,-1.8448,-1.8469,-1.8463,-1.8539,-1.8518,-1.852,-1.8523,-1.8551,-1.8557,-1.8563,-1.8488,-1.8488,-1.8488,0,0,-1.8154,-1.8175,-1.821,-1.8231,-1.8264,-1.8278,-1.8287,-1.832,-1.8331,-1.8375,-1.8379,-1.8408,-1.8463,-1.8486,-1.8505,-1.8554,-1.8556,-1.8564,-1.8584,-1.8612,-1.8617,-1.8622,-1.8641,-1.8647,-1.8568,-1.8568,-1.8568,0,-1.8166,-1.8214,-1.8227,-1.8262,-1.8283,-1.8287,-1.8323,-1.8343,-1.8385,-1.8399,-1.8391,-1.8461,-1.8483,-1.8536,-1.8548,-1.8562,-1.8573,-1.856,-1.8615,-1.862,-1.8625,-1.8643,-1.865,-1.8569,-1.8569,-1.8569,-1.8569,0,-1.8228,-1.8261,-1.8286,-1.8326,-1.8349,-1.8384,-1.8403,-1.8424,-1.8431,-1.8446,-1.8491,-1.8517,-1.8554,-1.8567,-1.8573,-1.8622,-1.8617,-1.8611,-1.8598,-1.8632,-1.8649,-1.8656,-1.857,-1.857,-1.8569,-1.8569,0,0,-1.8271,-1.8318,-1.8327,-1.8346,-1.8382,-1.8409,-1.8444,-1.848,-1.85,-1.8528,-1.8559,-1.8605,-1.8601,-1.8623,-1.8631,-1.8655,-1.8694,-1.8648,-1.8649,-1.8657,-1.8751,-1.8755,-1.8763,-1.8695,-1.8696,-1.8697,-1.8748,0,-1.8316,-1.838,-1.8393,-1.8448,-1.848,-1.8484,-1.8516,-1.8542,-1.8557,-1.8587,-1.8603,-1.8637,-1.8628,-1.8641,-1.8665,-1.8684,-1.8714,-1.8681,-1.8725,-1.8727,-1.8719,-1.8772,-1.8777,-1.8824,-1.8755,-1.8756,-1.8757,0,-1.8377,-1.8407,-1.8466,-1.8499,-1.8513,-1.854,-1.8575,-1.8603,-1.8633,-1.8643,-1.8667,-1.8673,-1.8711,-1.8694,-1.8747,-1.8725,-1.8744,-1.8756,-1.8758,-1.8764,-1.8745,-1.8781,-1.8839,-1.8847,-1.8768,-1.8767,-1.8766,0,-1.8405,-1.846,-1.8502,-1.8518,-1.8557,-1.8577,-1.8594,-1.8623,-1.8644,-1.8675,-1.8689,-1.8723,-1.8743,-1.8769,-1.8785,-1.8771,-1.8838,-1.8822,-1.8848,-1.8848,-1.8863,-1.8862,-1.8926,-1.8872,-1.8872,-1.8872,-1.8872,0,-1.8455,-1.8491,-1.8516,-1.8542,-1.8583,-1.8597,-1.8637,-1.8654,-1.868,-1.871,-1.8716,-1.8744,-1.8762,-1.8793,-1.8806,-1.8849,-1.8857,-1.8867,-1.887,-1.8867,-1.8866,-1.8881,-1.8879,-1.8874,-1.8874,-1.8873,-1.8873,0,-1.8494,-1.8511,-1.8558,-1.8591,-1.8601,-1.8629,-1.8658,-1.8684,-1.8699,-1.8738,-1.8747,-1.8772,-1.8809,-1.8827,-1.8872,-1.8881,-1.893,-1.893,-1.892,-1.8922,-1.8948,-1.8946,-1.9025,-1.9037,-1.8973,-1.8974,-1.8974,0,-1.8525,-1.8553,-1.8589,-1.861,-1.8628,-1.866,-1.8682,-1.8698,-1.8721,-1.8757,-1.8779,-1.8816,-1.8847,-1.8906,-1.8928,-1.8963,-1.8966,-1.8991,-1.8971,-1.8968,-1.8968,-1.8967,-1.897,-1.8995,-1.8996,-1.8996,-1.8996,0,-1.8579,-1.8587,-1.8618,-1.8653,-1.8679,-1.8707,-1.8735,-1.8751,-1.8771,-1.8797,-1.8835,-1.8858,-1.8905,-1.8943,-1.898,-1.8998,-1.9002,-1.9002,-1.9011,-1.9009,-1.9003,-1.9008,-1.8932,-1.9001,-1.9,-1.9,-1.9,-1.9,-1.8616,-1.8642,-1.8672,-1.8707,-1.8729,-1.8755,-1.8782,-1.88,-1.8832,-1.8872,-1.8878,-1.8919,-1.8949,-1.8999,-1.9019,-1.9051,-1.9046,-1.9057,-1.9061,-1.9064,-1.9066,-1.8996,-1.9058,-1.9058,-1.9058,-1.9058,-1.9058,0,-1.8672,-1.8692,-1.8724,-1.8763,-1.879,-1.879,-1.8821,-1.8844,-1.888,-1.8907,-1.8938,-1.8982,-1.9018,-1.9043,-1.908,-1.9102,-1.9104,-1.9111,-1.9111,-1.9115,-1.9068,-1.9058,-1.9109,-1.9109,-1.9109,-1.9109,-1.9109,-1.9109,-1.8705,-1.8748,-1.876,-1.8815,-1.8834,-1.8874,-1.8892,-1.8916,-1.8938,-1.8987,-1.9017,-1.9033,-1.906,-1.9099,-1.9133,-1.914,-1.9154,-1.9161,-1.9168,-1.9124,-1.9118,-1.9113,-1.9104,-1.9164,-1.9164,-1.9213,-1.9213,-1.9214]},{"header":{"parameterUnit":"m.s-1","parameterCategory":1,"la1":30.2991,"la2":30.254,"lo1":-89.0895,"lo2":-89.0444,"dy":0.0017,"dx":0.0017,"nx":28,"ny":28,"refTime":"2024-10-09T03:00:00:Z","depth":0,"parameterNumber":3,"parameterNumberName":"V-component_of_WINDS"},"data":[0,0,0,0,0,0,0,0,0,0,0,0,0,0,0,0,0,0,0,0,0,0,0,0,0,0,0,0,0,0,0,0,0,0,0,0,0,0,0,0,0,0,0,0,0,0,0,0,0,0,0,0,0,0,0,0,0,0,-4.5602,-4.5602,0,-4.5687,-4.5688,-4.5689,-4.5667,-4.5665,-4.5664,-4.5662,-4.5746,-4.5749,-4.5753,0,0,0,0,0,0,0,0,0,0,0,0,0,-4.5417,-4.542,-4.5601,-4.5603,-4.5604,-4.5687,-4.5688,-4.5689,-4.5667,-4.5665,-4.5663,-4.5661,-4.5744,-4.5749,-4.5753,0,0,0,0,0,0,0,0,0,0,0,0,0,-4.5499,-4.5421,-4.5601,-4.5603,-4.5604,-4.5687,-4.5688,-4.5689,-4.5668,-4.5665,-4.5663,-4.566,-4.5743,-4.5748,-4.5754,-4.5839,0,0,-4.5771,-4.5774,0,0,0,0,0,0,0,0,-4.5494,-4.5506,-4.5602,-4.5603,-4.5604,-4.5664,-4.5653,-4.574,-4.5668,-4.5643,-4.5662,-4.5659,-4.572,-4.5728,-4.5749,-4.5843,-4.5847,-4.5772,-4.5775,-4.5778,-4.5779,0,0,0,0,0,0,0,-4.5489,-4.5502,-4.5635,-4.5603,-4.5605,-4.5598,-4.5607,-4.567,-4.5695,-4.5645,-4.5644,-4.5655,-4.572,-4.5744,-4.5751,-4.5848,-4.5772,-4.5777,-4.578,-4.5783,-4.6018,-4.6021,0,0,0,0,0,0,-4.5482,-4.5497,-4.5632,-4.5638,-4.5542,-4.5604,-4.5614,-4.5647,-4.5694,-4.5699,-4.5657,-4.5653,-4.5735,-4.5744,-4.5754,-4.5858,-4.5778,-4.5783,-4.5786,-4.6015,-4.6019,-4.6022,0,0,0,0,0,0,-4.5478,-4.5495,-4.5629,-4.5567,-4.5584,-4.561,-4.5647,-4.565,-4.5673,-4.5703,-4.5707,-4.5676,-4.5734,-4.5746,-4.5819,-4.5861,-4.5786,-4.5791,-4.6012,-4.6016,-4.602,-4.6067,0,0,0,0,0,0,-4.5473,-4.5493,-4.5526,-4.5568,-4.5587,-4.5694,-4.565,-4.5654,-4.5684,-4.568,-4.5722,-4.5726,-4.5733,-4.5811,-4.5825,-4.5867,-4.5795,-4.6008,-4.6014,-4.6019,-4.6062,-4.6072,-4.6081,0,0,0,0,0,-4.5467,-4.5535,-4.5528,-4.5545,-4.563,-4.5696,-4.5707,-4.5714,-4.5687,-4.5721,-4.574,-4.5725,-4.5854,-4.5818,-4.5834,-4.5879,-4.6006,-4.6012,-4.6019,-4.6057,-4.607,-4.6081,0,0,0,0,0,0,-4.5495,-4.554,-4.5533,-4.5617,-4.5654,-4.5692,-4.5735,-4.5727,-4.577,-4.5765,-4.577,-4.578,-4.5855,-4.5874,-4.5834,-4.5965,-4.5926,-4.5936,-4.595,-4.5962,-4.5972,-4.5966,-4.58,0,0,0,0,0,-4.5512,-4.5564,-4.5599,-4.567,-4.5688,-4.5709,-4.5738,-4.574,-4.5777,-4.5792,-4.5816,-4.5852,-4.59,-4.5932,-4.5978,-4.6064,-4.6073,-4.6103,-4.6112,-4.612,-4.6129,-4.6178,-4.6192,-4.6043,-4.6043,-4.6043,0,0,-4.5546,-4.5577,-4.5608,-4.5676,-4.5705,-4.5758,-4.5721,-4.5778,-4.5818,-4.58,-4.5872,-4.5891,-4.593,-4.6011,-4.6048,-4.6029,-4.6172,-4.6128,-4.6134,-4.6139,-4.6186,-4.62,-4.6212,-4.6047,-4.6047,-4.6046,0,0,-4.5635,-4.5663,-4.5726,-4.5756,-4.58,-4.5813,-4.5828,-4.5869,-4.5882,-4.5954,-4.5943,-4.5988,-4.6071,-4.6101,-4.6127,-4.6229,-4.6218,-4.6244,-4.6295,-4.6343,-4.6354,-4.6365,-4.6403,-4.6416,-4.6252,-4.6252,-4.6253,0,-4.5671,-4.5752,-4.5759,-4.5818,-4.5849,-4.5837,-4.5901,-4.5929,-4.5985,-4.6006,-4.5984,-4.609,-4.6116,-4.6204,-4.623,-4.625,-4.6268,-4.624,-4.6352,-4.6363,-4.6373,-4.6409,-4.6423,-4.6255,-4.6255,-4.6255,-4.6255,0,-4.5795,-4.5851,-4.5896,-4.5954,-4.5989,-4.605,-4.6066,-4.6101,-4.61,-4.6116,-4.619,-4.6221,-4.6274,-4.6295,-4.6294,-4.6384,-4.6371,-4.6351,-4.6312,-4.639,-4.6424,-4.6438,-4.626,-4.6259,-4.6258,-4.6257,0,0,-4.5905,-4.5967,-4.5983,-4.601,-4.6058,-4.6101,-4.6162,-4.6215,-4.6246,-4.6285,-4.6336,-4.6408,-4.639,-4.642,-4.6422,-4.6463,-4.6545,-4.6438,-4.6439,-4.6459,-4.6648,-4.6664,-4.668,-4.6537,-4.654,-4.6542,-4.6645,0,-4.6,-4.6108,-4.6118,-4.6215,-4.6267,-4.6258,-4.6311,-4.6346,-4.6362,-4.6408,-4.6425,-4.6477,-4.6448,-4.6466,-4.6507,-4.6526,-4.6583,-4.6519,-4.6585,-4.6588,-4.6578,-4.6697,-4.6714,-4.681,-4.6658,-4.666,-4.6662,0,-4.6125,-4.6171,-4.6274,-4.6317,-4.6339,-4.6387,-4.6438,-4.6482,-4.6522,-4.6531,-4.6565,-4.6562,-4.6624,-4.6582,-4.6668,-4.6625,-4.6652,-4.6666,-4.667,-4.6677,-4.6631,-4.671,-4.684,-4.6856,-4.6683,-4.6681,-4.668,0,-4.6197,-4.6284,-4.6358,-4.638,-4.6432,-4.6466,-4.6489,-4.6526,-4.6558,-4.6602,-4.6623,-4.6673,-4.6701,-4.6739,-4.675,-4.6718,-4.6836,-4.6795,-4.6846,-4.6846,-4.6872,-4.6871,-4.7011,-4.6887,-4.6887,-4.6887,-4.6886,0,-4.6303,-4.6367,-4.6391,-4.6437,-4.6509,-4.6518,-4.6588,-4.6609,-4.6642,-4.6691,-4.6685,-4.673,-4.6741,-4.6789,-4.6797,-4.6868,-4.688,-4.6889,-4.6891,-4.6891,-4.689,-4.691,-4.6904,-4.689,-4.689,-4.6889,-4.6888,0,-4.6396,-4.6415,-4.6495,-4.6538,-4.655,-4.6601,-4.6638,-4.6681,-4.6697,-4.6759,-4.6774,-4.6798,-4.6855,-4.6869,-4.6935,-4.6941,-4.7025,-4.702,-4.7013,-4.7013,-4.7064,-4.706,-4.7223,-4.7246,-4.7106,-4.7107,-4.7108,0,-4.6463,-4.6513,-4.6562,-4.6596,-4.6621,-4.6674,-4.6708,-4.6718,-4.6754,-4.6804,-4.6842,-4.6897,-4.6943,-4.7033,-4.7056,-4.7107,-4.7104,-4.7158,-4.7111,-4.7111,-4.7107,-4.7105,-4.711,-4.7167,-4.7168,-4.7169,-4.717,0,-4.6582,-4.6589,-4.6639,-4.6693,-4.6734,-4.6776,-4.6816,-4.6844,-4.686,-4.69,-4.6959,-4.6994,-4.7063,-4.7119,-4.7171,-4.7193,-4.7185,-4.7185,-4.72,-4.7201,-4.7196,-4.7201,-4.7039,-4.7181,-4.718,-4.7179,-4.7179,-4.7178,-4.6665,-4.671,-4.6752,-4.6808,-4.684,-4.6879,-4.6923,-4.6945,-4.6994,-4.7053,-4.7056,-4.712,-4.7159,-4.7229,-4.7254,-4.7304,-4.7287,-4.7308,-4.7314,-4.732,-4.7325,-4.7187,-4.7313,-4.7313,-4.7312,-4.7312,-4.7312,0,-4.6785,-4.6812,-4.6864,-4.6922,-4.6966,-4.6956,-4.7,-4.7038,-4.7095,-4.7133,-4.7179,-4.7247,-4.7301,-4.7329,-4.7383,-4.7418,-4.7416,-4.7432,-4.743,-4.7436,-4.7335,-4.7318,-4.7433,-4.7433,-4.7433,-4.7433,-4.7433,-4.7433,-4.6852,-4.6928,-4.694,-4.7032,-4.7058,-4.7123,-4.7149,-4.7185,-4.7216,-4.7293,-4.7339,-4.7357,-4.7391,-4.7448,-4.7498,-4.7504,-4.7525,-4.7544,-4.7549,-4.7455,-4.7443,-4.7431,-4.7415,-4.7548,-4.7548,-4.7646,-4.7646,-4.7647]}]]